Weather History for Franklin, NC

Change the Weather History Date:

Friday, December 13, 2013

  Actual Average (KTOC) Record (KTOC)
Temperature  
Mean Temperature 32 °F -  
Max Temperature 48 °F 56 °F 54 °F (2013)
Min Temperature 16 °F 36 °F 30 °F (2013)
Degree Days  
Heating Degree Days 33    
Moisture  
Dew Point 19 °F    
Average Humidity 67    
Maximum Humidity 89    
Minimum Humidity 23    
Precipitation  
Precipitation 0.00 in - - ()
Sea Level Pressure  
Sea Level Pressure 30.30 in    
Wind  
Wind Speed 0 mph (SSE)    
Max Wind Speed 5 mph    
Max Gust Speed -    
Visibility 10 miles    
Events      
Averages and records for this station are not official NWS values.
T = Trace of Precipitation, MM = Missing Value Source: NWS Daily Summary

Daily Weather History Graph

Daily Weather History Graph

Search for Another Location

Airport:

Trip Planner

Search our weather history database for the weather conditions in past years. The results will help you decide how hot, cold, wet, or windy it might be!

Date:

Astronomy

Dec. 13, 2013 Rise Set
Actual Time 7:33 AM EST 5:22 PM EST
Civil Twilight 7:05 AM EST 5:50 PM EST
Nautical Twilight 6:33 AM EST 6:22 PM EST
Astronomical Twilight 6:02 AM EST 6:53 PM EST
Moon 2:59 PM EST (12/13) 4:00 AM EST (12/13)
Length of Visible Light 10h 45m
Length of Day
9h 48m
Waxing Gibbous, 88% of the Moon is Illuminated
Dec 13
Waxing Gibbous
Dec 17
Full
Dec 25
Last Quarter
Jan 1
New
Jan 7
First Quarter

Hourly Weather History & Observations

Time (EST) Temp. Windchill Dew Point Humidity Pressure Visibility Wind Dir Wind Speed Gust Speed Precip Events Conditions
12:15 AM 21.4 °F - 18.1 °F 87% 30.37 in 10.0 mi Calm Calm - N/A   Clear
12:35 AM 20.5 °F - 17.2 °F 87% 30.38 in 10.0 mi Calm Calm - N/A   Clear
12:55 AM 20.3 °F - 16.5 °F 85% 30.38 in 10.0 mi Calm Calm - N/A   Clear
1:15 AM 20.1 °F - 16.7 °F 87% 30.38 in 10.0 mi Calm Calm - N/A   Clear
1:35 AM 20.1 °F - 17.2 °F 89% 30.39 in 10.0 mi Calm Calm - N/A   Clear
1:55 AM 19.8 °F - 16.7 °F 88% 30.39 in 10.0 mi Calm Calm - N/A   Clear
2:15 AM 19.8 °F - 16.7 °F 88% 30.38 in 10.0 mi Calm Calm - N/A   Clear
2:35 AM 18.9 °F - 15.8 °F 88% 30.37 in 10.0 mi Calm Calm - N/A   Clear
2:55 AM 18.3 °F - 15.4 °F 89% 30.37 in 10.0 mi Calm Calm - N/A   Clear
3:15 AM 18.3 °F - 15.1 °F 87% 30.37 in 10.0 mi Calm Calm - N/A   Clear
3:35 AM 18.3 °F - 14.9 °F 86% 30.37 in 10.0 mi Calm Calm - N/A   Clear
3:55 AM 18.1 °F - 15.3 °F 88% 30.37 in 10.0 mi Calm Calm - N/A   Clear
4:15 AM 17.6 °F - 14.5 °F 88% 30.37 in 10.0 mi Calm Calm - N/A   Clear
4:35 AM 17.6 °F - 14.7 °F 88% 30.36 in 10.0 mi Calm Calm - N/A   Clear
4:55 AM 17.2 °F - 14.0 °F 87% 30.35 in 10.0 mi Calm Calm - N/A   Clear
5:15 AM 17.2 °F - 14.5 °F 89% 30.35 in 10.0 mi Calm Calm - N/A   Clear
5:35 AM 17.8 °F - 15.1 °F 89% 30.35 in 10.0 mi Calm Calm - N/A   Clear
5:55 AM 17.1 °F - 14.0 °F 88% 30.35 in 10.0 mi Calm Calm - N/A   Clear
6:15 AM 17.1 °F - 14.2 °F 88% 30.35 in 10.0 mi Calm Calm - N/A   Clear
6:35 AM 16.5 °F - 13.5 °F 88% 30.35 in 10.0 mi Calm Calm - N/A   Clear
6:55 AM 16.5 °F - 13.3 °F 87% 30.35 in 10.0 mi Calm Calm - N/A   Clear
7:15 AM 16.2 °F - 13.1 °F 88% 30.35 in 10.0 mi Calm Calm - N/A   Clear
7:35 AM 16.5 °F - 13.5 °F 88% 30.35 in 10.0 mi Calm Calm - N/A   Clear
7:55 AM 16.9 °F - 14.0 °F 88% 30.35 in 10.0 mi Calm Calm - N/A   Clear
8:15 AM 17.6 °F - 14.5 °F 88% 30.36 in 10.0 mi Calm Calm - N/A   Clear
8:35 AM 19.6 °F - 16.5 °F 88% 30.36 in 10.0 mi Calm Calm - N/A   Clear
8:55 AM 21.4 °F - 17.8 °F 86% 30.36 in 10.0 mi Calm Calm - N/A   Clear
9:15 AM 23.5 °F - 19.6 °F 85% 30.36 in 10.0 mi Calm Calm - N/A   Clear
9:35 AM 26.1 °F - 18.9 °F 74% 30.37 in 10.0 mi Calm Calm - N/A   Clear
9:55 AM 28.2 °F - 18.9 °F 68% 30.37 in 10.0 mi Calm Calm - N/A   Clear
10:15 AM 29.7 °F - 16.7 °F 59% 30.37 in 10.0 mi Calm Calm - N/A   Clear
10:35 AM 32.0 °F - 15.3 °F 50% 30.35 in 10.0 mi Calm Calm - N/A   Clear
10:55 AM 33.6 °F - 15.6 °F 48% 30.34 in 10.0 mi Calm Calm - N/A   Clear
11:15 AM 35.1 °F - 13.5 °F 41% 30.33 in 10.0 mi Calm Calm - N/A   Clear
11:35 AM 37.6 °F - 10.8 °F 33% 30.32 in 10.0 mi Calm Calm - N/A   Clear
11:55 AM 39.7 °F - 12.0 °F 32% 30.31 in 10.0 mi Calm Calm - N/A   Clear
12:15 PM 41.0 °F - 8.2 °F 26% 30.30 in 10.0 mi Calm Calm - N/A   Clear
12:35 PM 42.8 °F - 8.1 °F 24% 30.29 in 10.0 mi Calm Calm - N/A   Clear
12:55 PM 44.4 °F - 8.2 °F 23% 30.27 in 10.0 mi Calm Calm - N/A   Clear
1:15 PM 43.9 °F - 10.2 °F 25% 30.26 in 10.0 mi Calm Calm - N/A   Clear
1:35 PM 44.6 °F - 11.5 °F 26% 30.25 in 10.0 mi Calm Calm - N/A   Clear
1:55 PM 45.1 °F - 10.8 °F 25% 30.24 in 10.0 mi Calm Calm - N/A   Clear
2:15 PM 45.5 °F - 11.1 °F 25% 30.24 in 10.0 mi Calm Calm - N/A   Clear
2:35 PM 45.3 °F - 10.6 °F 24% 30.23 in 10.0 mi Calm Calm - N/A   Clear
2:55 PM 46.4 °F - 11.5 °F 24% 30.23 in 10.0 mi Calm Calm - N/A   Clear
3:15 PM 48.2 °F - 11.8 °F 23% 30.22 in 10.0 mi Calm Calm - N/A   Clear
3:35 PM 47.8 °F - 12.0 °F 24% 30.21 in 10.0 mi Calm Calm - N/A   Clear
3:55 PM 48.4 °F - 13.3 °F 24% 30.21 in 10.0 mi Calm Calm - N/A   Clear
4:15 PM 47.8 °F - 14.5 °F 26% 30.21 in 10.0 mi Calm Calm - N/A   Clear
4:35 PM 42.6 °F - 22.3 °F 45% 30.22 in 10.0 mi Calm Calm - N/A   Clear
4:55 PM 38.3 °F 35.9 °F 26.1 °F 61% 30.23 in 10.0 mi WSW 3.5 mph - N/A   Clear
5:15 PM 37.9 °F - 26.2 °F 63% 30.23 in 10.0 mi Calm Calm - N/A   Clear
5:35 PM 37.8 °F - 27.1 °F 66% 30.22 in 7.0 mi Calm Calm - N/A   Scattered Clouds
5:55 PM 37.9 °F - 27.3 °F 66% 30.23 in 10.0 mi Calm Calm - N/A   Scattered Clouds
6:15 PM 37.6 °F - 28.0 °F 68% 30.23 in 10.0 mi Calm Calm - N/A   Scattered Clouds
6:35 PM 36.9 °F - 27.9 °F 70% 30.22 in 10.0 mi Calm Calm - N/A   Scattered Clouds
6:55 PM 36.9 °F - 28.4 °F 71% 30.23 in 10.0 mi Calm Calm - N/A   Mostly Cloudy
7:15 PM 36.9 °F - 27.5 °F 69% 30.24 in 10.0 mi Calm Calm - N/A   Overcast
7:35 PM 36.7 °F - 28.8 °F 73% 30.25 in 10.0 mi Calm Calm - N/A   Mostly Cloudy
7:55 PM 36.7 °F - 28.0 °F 71% 30.24 in 7.0 mi Calm Calm - N/A   Mostly Cloudy
8:15 PM 36.3 °F - 28.9 °F 75% 30.25 in 10.0 mi Calm Calm - N/A   Scattered Clouds
8:35 PM 35.4 °F - 28.4 °F 76% 30.25 in 10.0 mi Calm Calm - N/A   Scattered Clouds
8:55 PM 34.9 °F - 28.6 °F 78% 30.25 in 10.0 mi Calm Calm - N/A   Scattered Clouds
9:15 PM 35.6 °F - 29.5 °F 78% 30.24 in 10.0 mi Calm Calm - N/A   Mostly Cloudy
9:35 PM 35.6 °F - 29.1 °F 77% 30.23 in 10.0 mi Calm Calm - N/A   Overcast
9:55 PM 35.2 °F 32.4 °F 28.4 °F 76% 30.23 in 10.0 mi SW 3.5 mph - N/A   Overcast
10:15 PM 35.6 °F - 28.6 °F 76% 30.22 in 10.0 mi Calm Calm - N/A   Overcast
10:35 PM 35.6 °F - 28.2 °F 75% 30.23 in 10.0 mi Calm Calm - N/A   Overcast
10:55 PM 35.6 °F - 28.8 °F 76% 30.23 in 10.0 mi Calm Calm - N/A   Mostly Cloudy
11:15 PM 35.6 °F 31.7 °F 28.2 °F 75% 30.22 in 10.0 mi ENE 4.6 mph - N/A   Scattered Clouds
11:35 PM 36.5 °F - 26.4 °F 67% 30.22 in 10.0 mi Calm Calm - N/A   Scattered Clouds
11:55 PM 36.5 °F 33.9 °F 26.8 °F 68% 30.22 in 10.0 mi ENE 3.5 mph - N/A   Scattered Clouds